ANZ653 NZCH-NZQN

Flight info

Callsign ANZ653
Flight time N/A
Altitude 16000
Route GUPUT Y266 ELRUV
Aircraft A320/M-SDE3FGHIRWY/LB1

Departure

Time 2026-05-05 08:34
Airport Christchurch International Airport (NZCH)

Arrival

Time N/A
Airport Queenstown Airport (NZQN)
Time Latitude Longitude Altitude Speed Heading
2026-05-05 08:01 -43.48896 172.53751 120 ft 0 kts 129°
2026-05-05 08:20 -43.48882 172.53727 116 ft 4 kts 128°
2026-05-05 08:21 -43.48869 172.53705 116 ft 4 kts 129°
2026-05-05 08:21 -43.48851 172.53677 117 ft 4 kts 137°
2026-05-05 08:21 -43.48829 172.53655 114 ft 4 kts 155°
2026-05-05 08:21 -43.48818 172.53649 115 ft 0 kts 165°
2026-05-05 08:23 -43.48791 172.53672 119 ft 0 kts 217°
2026-05-05 08:23 -43.48766 172.53698 118 ft 0 kts 217°
2026-05-05 08:24 -43.48796 172.53667 117 ft 0 kts 217°
2026-05-05 08:28 -43.48811 172.53649 113 ft 6 kts 220°
2026-05-05 08:28 -43.48855 172.53599 115 ft 10 kts 219°
2026-05-05 08:28 -43.48935 172.53505 117 ft 17 kts 220°
2026-05-05 08:29 -43.49035 172.53391 114 ft 21 kts 219°
2026-05-05 08:29 -43.49153 172.53254 115 ft 23 kts 221°
2026-05-05 08:29 -43.49278 172.53110 117 ft 24 kts 220°
2026-05-05 08:30 -43.49530 172.52815 126 ft 24 kts 221°
2026-05-05 08:30 -43.49665 172.52661 125 ft 27 kts 219°
2026-05-05 08:30 -43.49789 172.52514 127 ft 12 kts 245°
2026-05-05 08:30 -43.49791 172.52386 126 ft 7 kts 274°
2026-05-05 08:31 -43.49790 172.52381 125 ft 0 kts 274°
2026-05-05 08:31 -43.49790 172.52370 124 ft 5 kts 274°
2026-05-05 08:31 -43.49784 172.52279 127 ft 15 kts 281°
2026-05-05 08:31 -43.49737 172.52239 125 ft 8 kts 39°
2026-05-05 08:32 -43.49698 172.52284 121 ft 0 kts 39°
2026-05-05 08:33 -43.49693 172.52289 123 ft 4 kts 39°
2026-05-05 08:33 -43.49511 172.52499 123 ft 69 kts 39°
2026-05-05 08:33 -43.48982 172.53107 114 ft 126 kts 40°
2026-05-05 08:34 -43.48216 172.54001 297 ft 151 kts 40°
2026-05-05 08:34 -43.47420 172.54918 883 ft 150 kts 39°
2026-05-05 08:34 -43.46583 172.55849 1361 ft 159 kts 37°
2026-05-05 08:34 -43.45652 172.56816 1742 ft 176 kts 32°
2026-05-05 08:35 -43.44562 172.57725 2159 ft 190 kts 26°
2026-05-05 08:35 -43.43275 172.58506 2383 ft 217 kts 15°
2026-05-05 08:35 -43.41734 172.58700 2904 ft 228 kts 349°
2026-05-05 08:35 -43.40271 172.57865 3655 ft 232 kts 323°
2026-05-05 08:36 -43.39217 172.56176 4446 ft 238 kts 297°
2026-05-05 08:36 -43.38793 172.53946 5152 ft 250 kts 273°
2026-05-05 08:36 -43.39121 172.51546 5820 ft 265 kts 249°
2026-05-05 08:36 -43.40202 172.49426 6519 ft 279 kts 224°
2026-05-05 08:37 -43.41887 172.47964 7060 ft 298 kts 202°
2026-05-05 08:37 -43.43975 172.47341 7466 ft 318 kts 184°
2026-05-05 08:37 -43.46182 172.47380 8404 ft 308 kts 176°
2026-05-05 08:37 -43.48192 172.47697 9304 ft 283 kts 171°
2026-05-05 08:38 -43.50186 172.48141 9816 ft 299 kts 176°
2026-05-05 08:38 -43.52239 172.47654 10381 ft 304 kts 209°
2026-05-05 08:38 -43.53934 172.45942 10973 ft 307 kts 228°
2026-05-05 08:38 -43.55301 172.43562 11162 ft 326 kts 242°
2026-05-05 08:39 -43.56402 172.40711 11406 ft 344 kts 245°
2026-05-05 08:39 -43.57536 172.37827 11972 ft 350 kts 244°
2026-05-05 08:39 -43.58732 172.34867 12641 ft 355 kts 244°
2026-05-05 08:39 -43.59950 172.31880 13306 ft 357 kts 244°
2026-05-05 08:40 -43.61178 172.28867 13872 ft 361 kts 244°
2026-05-05 08:40 -43.62401 172.25828 14503 ft 364 kts 244°
2026-05-05 08:40 -43.63640 172.22722 15084 ft 368 kts 244°
2026-05-05 08:40 -43.64873 172.19617 15638 ft 372 kts 244°
2026-05-05 08:41 -43.66120 172.16472 16138 ft 376 kts 244°
2026-05-05 08:41 -43.67381 172.13285 16302 ft 379 kts 244°
2026-05-05 08:41 -43.68669 172.10014 16332 ft 394 kts 244°
2026-05-05 08:41 -43.69974 172.06705 16332 ft 397 kts 244°
2026-05-05 08:42 -43.71300 172.03348 16332 ft 399 kts 244°
2026-05-05 08:42 -43.72626 171.99987 16333 ft 399 kts 244°
2026-05-05 08:42 -43.73954 171.96614 16332 ft 399 kts 244°
2026-05-05 08:42 -43.75281 171.93230 16333 ft 399 kts 244°
2026-05-05 08:43 -43.76602 171.89851 16333 ft 399 kts 244°
2026-05-05 08:43 -43.77925 171.86472 16331 ft 399 kts 244°
2026-05-05 08:43 -43.79248 171.83093 16333 ft 399 kts 244°
2026-05-05 08:43 -43.80552 171.79756 16334 ft 399 kts 244°
2026-05-05 08:44 -43.81890 171.76330 16335 ft 399 kts 244°
2026-05-05 08:44 -43.83208 171.72957 16338 ft 399 kts 245°
2026-05-05 08:44 -43.84550 171.69581 16340 ft 400 kts 243°
2026-05-05 08:44 -43.85930 171.66283 16341 ft 400 kts 242°
2026-05-05 08:45 -43.87366 171.62963 16342 ft 401 kts 242°
2026-05-05 08:45 -43.88806 171.59667 16345 ft 401 kts 242°
2026-05-05 08:45 -43.90249 171.56353 16346 ft 401 kts 242°
2026-05-05 08:45 -43.91680 171.53039 16348 ft 401 kts 242°
2026-05-05 08:46 -43.93107 171.49697 16346 ft 401 kts 243°
2026-05-05 08:46 -43.94511 171.46379 16344 ft 401 kts 243°
2026-05-05 08:46 -43.95910 171.43066 16344 ft 401 kts 243°